| time (UTC) | temp C | wind direction | speed KPH | gust KPH | rain 1hr cm | rain 24hr cm | rain mn cm | humidity % | barometer mb |
| 20260504202502 | 23 | 58 | 4.8 | 11.3 | 0.00 | 0.00 | 0.00 | 40 | 980.1 |
| 20260504202000 | 23 | 236 | 3.2 | 14.5 | 0.00 | 0.00 | 0.00 | 41 | 980.2 |
| 20260504201503 | 23 | 131 | 1.6 | 14.5 | 0.00 | 0.00 | 0.00 | 41 | 980.3 |
| 20260504200459 | 23 | 171 | 0.0 | 11.3 | 0.00 | 0.00 | 0.00 | 43 | 980.5 |
| 20260504195959 | 23 | 306 | 3.2 | 14.5 | 0.00 | 0.00 | 0.00 | 41 | 980.7 |
| 20260504195459 | 23 | 179 | 3.2 | 17.7 | 0.00 | 0.00 | 0.00 | 41 | 980.6 |
| 20260504194952 | 23 | 165 | 8.0 | 17.7 | 0.00 | 0.00 | 0.00 | 39 | 980.7 |
| 20260504194454 | 23 | 247 | 1.6 | 11.3 | 0.00 | 0.00 | 0.00 | 41 | 980.7 |
| 20260504193950 | 23 | 309 | 3.2 | 19.3 | 0.00 | 0.00 | 0.00 | 41 | 980.7 |
| 20260504193450 | 23 | 236 | 4.8 | 19.3 | 0.00 | 0.00 | 0.00 | 39 | 981.0 |
| 20260504192948 | 23 | 177 | 4.8 | 11.3 | 0.00 | 0.00 | 0.00 | 40 | 981.0 |
| 20260504192447 | 23 | 159 | 1.6 | 16.1 | 0.00 | 0.00 | 0.00 | 42 | 981.1 |
| 20260504191947 | 23 | 190 | 6.4 | 16.1 | 0.00 | 0.00 | 0.00 | 40 | 981.3 |
| 20260504191442 | 23 | 161 | 1.6 | 14.5 | 0.00 | 0.00 | 0.00 | 42 | 981.3 |
| 20260504190942 | 23 | 173 | 3.2 | 14.5 | 0.00 | 0.00 | 0.00 | 41 | 981.4 |
| 20260504190440 | 23 | 178 | 1.6 | 11.3 | 0.00 | 0.00 | 0.00 | 42 | 981.4 |
| 20260504185941 | 23 | 187 | 4.8 | 11.3 | 0.00 | 0.00 | 0.00 | 38 | 981.4 |
| 20260504185438 | 22 | 226 | 3.2 | 12.9 | 0.00 | 0.00 | 0.00 | 43 | 981.5 |
| 20260504184934 | 22 | 220 | 3.2 | 12.9 | 0.00 | 0.00 | 0.00 | 41 | 981.6 |
| 20260504183930 | 22 | 184 | 3.2 | 16.1 | 0.00 | 0.00 | 0.00 | 42 | 982.0 |
| 20260504182929 | 22 | 148 | 3.2 | 12.9 | 0.00 | 0.00 | 0.00 | 41 | 981.9 |
| 20260504182430 | 22 | 200 | 3.2 | 16.1 | 0.00 | 0.00 | 0.00 | 40 | 982.0 |
| 20260504181930 | 22 | 246 | 4.8 | 16.1 | 0.00 | 0.00 | 0.00 | 41 | 982.1 |
| 20260504181429 | 22 | 151 | 3.2 | 12.9 | 0.00 | 0.00 | 0.00 | 41 | 982.2 |
| 20260504180930 | 22 | 211 | 3.2 | 12.9 | 0.00 | 0.00 | 0.00 | 42 | 982.3 |
| 20260504180430 | 21 | 188 | 3.2 | 17.7 | 0.00 | 0.00 | 0.00 | 40 | 982.3 |
| 20260504175932 | 21 | 140 | 8.0 | 17.7 | 0.00 | 0.00 | 0.00 | 40 | 982.5 |
| 20260504175429 | 22 | 245 | 6.4 | 16.1 | 0.00 | 0.00 | 0.00 | 41 | 982.4 |
| 20260504174930 | 22 | 177 | 4.8 | 11.3 | 0.00 | 0.00 | 0.00 | 39 | 982.3 |
| 20260504174429 | 22 | 184 | 4.8 | 11.3 | 0.00 | 0.00 | 0.00 | 40 | 982.5 |
| 20260504173930 | 22 | 130 | 3.2 | 8.0 | 0.00 | 0.00 | 0.00 | 43 | 982.5 |
| 20260504173429 | 22 | 204 | 3.2 | 9.7 | 0.00 | 0.00 | 0.00 | 43 | 982.4 |
| 20260504172929 | 22 | 246 | 3.2 | 9.7 | 0.00 | 0.00 | 0.00 | 42 | 982.6 |
| 20260504172431 | 22 | 312 | 3.2 | 9.7 | 0.00 | 0.00 | 0.00 | 41 | 982.6 |
| 20260504170930 | 21 | 204 | 3.2 | 11.3 | 0.00 | 0.00 | 0.00 | 41 | 982.8 |
| 20260504170431 | 21 | 27 | 3.2 | 14.5 | 0.00 | 0.00 | 0.00 | 42 | 982.7 |
| 20260504160430 | 21 | 184 | 6.4 | 11.3 | 0.00 | 0.00 | 0.00 | 42 | 983.4 |
| 20260504150426 | 19 | 134 | 3.2 | 12.9 | 0.00 | 0.00 | 0.00 | 43 | 983.9 |
| 20260504140902 | 17 | 149 | 3.2 | 8.0 | 0.00 | 0.00 | 0.00 | 44 | 983.9 |
| 20260504140402 | 17 | 221 | 3.2 | 6.4 | 0.00 | 0.00 | 0.00 | 47 | 983.8 |
| 20260504130402 | 14 | 209 | 3.2 | 6.4 | 0.00 | 0.00 | 0.00 | 52 | 984.3 |
| 20260504110328 | 8 | 238 | 1.6 | 8.0 | 0.00 | 0.00 | 0.00 | 55 | 984.5 |
| 20260504100304 | 8 | 169 | 1.6 | 8.0 | 0.00 | 0.00 | 0.00 | 57 | 984.3 |
| 20260504081802 | 7 | 239 | 0.0 | 0.0 | 0.00 | 0.00 | 0.00 | 57 | 984.7 |
| 20260504081302 | 7 | 239 | 0.0 | 0.0 | 0.00 | 0.00 | 0.00 | 57 | 984.7 |
| 20260504080807 | 7 | 239 | 0.0 | 0.0 | 0.00 | 0.00 | 0.00 | 57 | 984.7 |
| 20260504080300 | 7 | 239 | 0.0 | 0.0 | 0.00 | 0.00 | 0.00 | 57 | 984.8 |
| 20260504070303 | 7 | 294 | 0.0 | 0.0 | 0.00 | 0.00 | 0.00 | 57 | 984.7 |
| 20260504050731 | 7 | 294 | 0.0 | 0.0 | 0.00 | 0.00 | 0.00 | 58 | 985.5 |
| 20260504045219 | 7 | 294 | 0.0 | 0.0 | 0.00 | 0.00 | 0.00 | 57 | 985.5 |
| 20260504044710 | 7 | 294 | 0.0 | 0.0 | 0.00 | 0.00 | 0.00 | 58 | 985.5 |
| 20260504043707 | 7 | 294 | 0.0 | 0.0 | 0.00 | 0.00 | 0.00 | 55 | 985.4 |
| 20260504043205 | 7 | 294 | 0.0 | 0.0 | 0.00 | 0.00 | 0.00 | 56 | 985.5 |
| 20260504042705 | 7 | 294 | 0.0 | 0.0 | 0.00 | 0.00 | 0.00 | 57 | 985.4 |
| 20260504042204 | 8 | 294 | 0.0 | 0.0 | 0.00 | 0.00 | 0.00 | 58 | 985.5 |
| 20260504041706 | 8 | 294 | 0.0 | 0.0 | 0.00 | 0.00 | 0.00 | 56 | 985.4 |
| 20260504041200 | 8 | 294 | 0.0 | 0.0 | 0.00 | 0.00 | 0.00 | 54 | 985.3 |
| 20260504040201 | 7 | 294 | 0.0 | 0.0 | 0.00 | 0.00 | 0.00 | 54 | 985.2 |
| 20260504035201 | 7 | 294 | 0.0 | 0.0 | 0.00 | 0.00 | 0.00 | 54 | 985.2 |
| 20260504034702 | 7 | 294 | 0.0 | 0.0 | 0.00 | 0.00 | 0.00 | 54 | 985.1 |
| 20260504034202 | 7 | 294 | 0.0 | 0.0 | 0.00 | 0.00 | 0.00 | 54 | 985.0 |
| 20260504033707 | 7 | 294 | 0.0 | 0.0 | 0.00 | 0.00 | 0.00 | 56 | 985.1 |
| 20260504033202 | 7 | 294 | 0.0 | 0.0 | 0.00 | 0.00 | 0.00 | 56 | 985.0 |
| 20260504032706 | 7 | 294 | 0.0 | 0.0 | 0.00 | 0.00 | 0.00 | 56 | 985.0 |
| 20260504032204 | 7 | 294 | 0.0 | 0.0 | 0.00 | 0.00 | 0.00 | 55 | 984.9 |
| 20260504031703 | 7 | 294 | 0.0 | 0.0 | 0.00 | 0.00 | 0.00 | 54 | 985.1 |
| 20260504031204 | 7 | 294 | 0.0 | 0.0 | 0.00 | 0.00 | 0.00 | 55 | 985.1 |
| 20260504030203 | 7 | 294 | 0.0 | 0.0 | 0.00 | 0.00 | 0.00 | 55 | 984.9 |
| 20260504025706 | 7 | 294 | 0.0 | 0.0 | 0.00 | 0.00 | 0.00 | 55 | 984.9 |
| 20260504025202 | 7 | 294 | 0.0 | 0.0 | 0.00 | 0.00 | 0.00 | 55 | 984.9 |
| 20260504024705 | 8 | 294 | 0.0 | 0.0 | 0.00 | 0.00 | 0.00 | 55 | 985.0 |
| 20260504023703 | 8 | 294 | 0.0 | 0.0 | 0.00 | 0.00 | 0.00 | 54 | 985.0 |
| 20260504023203 | 8 | 294 | 0.0 | 0.0 | 0.00 | 0.00 | 0.00 | 55 | 985.0 |
| 20260504022706 | 8 | 294 | 0.0 | 0.0 | 0.00 | 0.00 | 0.00 | 55 | 984.9 |
| 20260504022204 | 8 | 294 | 0.0 | 0.0 | 0.00 | 0.00 | 0.00 | 55 | 984.9 |
| 20260504021703 | 8 | 294 | 0.0 | 0.0 | 0.00 | 0.00 | 0.00 | 54 | 984.9 |
| 20260504021202 | 8 | 294 | 0.0 | 0.0 | 0.00 | 0.00 | 0.00 | 55 | 984.9 |
| 20260504020703 | 8 | 294 | 0.0 | 0.0 | 0.00 | 0.00 | 0.00 | 56 | 984.9 |
| 20260504020209 | 8 | 294 | 0.0 | 0.0 | 0.00 | 0.00 | 0.00 | 55 | 984.9 |
| 20260504015703 | 8 | 294 | 0.0 | 0.0 | 0.00 | 0.00 | 0.00 | 54 | 984.9 |
| 20260504015204 | 8 | 294 | 0.0 | 0.0 | 0.00 | 0.00 | 0.00 | 53 | 984.8 |
| 20260504014704 | 8 | 294 | 0.0 | 0.0 | 0.00 | 0.00 | 0.00 | 53 | 984.8 |
| 20260504013703 | 8 | 294 | 0.0 | 0.0 | 0.00 | 0.00 | 0.00 | 54 | 984.9 |
| 20260504013203 | 9 | 294 | 0.0 | 0.0 | 0.00 | 0.00 | 0.00 | 54 | 984.9 |
| 20260504012702 | 9 | 294 | 0.0 | 0.0 | 0.00 | 0.00 | 0.00 | 53 | 984.9 |
| 20260504011652 | 10 | 294 | 0.0 | 0.0 | 0.00 | 0.00 | 0.00 | 49 | 984.6 |
| 20260504011142 | 10 | 294 | 0.0 | 0.0 | 0.00 | 0.00 | 0.00 | 50 | 984.7 |
| 20260504010642 | 10 | 294 | 0.0 | 0.0 | 0.00 | 0.00 | 0.00 | 50 | 984.7 |
| 20260504010135 | 10 | 294 | 0.0 | 0.0 | 0.00 | 0.00 | 0.00 | 50 | 984.6 |
| 20260504005632 | 10 | 294 | 0.0 | 0.0 | 0.00 | 0.00 | 0.00 | 50 | 984.6 |
| 20260504004129 | 11 | 294 | 0.0 | 0.0 | 0.00 | 0.00 | 0.00 | 47 | 984.5 |
| 20260504003629 | 11 | 294 | 0.0 | 0.0 | 0.00 | 0.00 | 0.00 | 46 | 984.4 |
| 20260504003132 | 11 | 294 | 0.0 | 0.0 | 0.00 | 0.00 | 0.00 | 46 | 984.4 |
| 20260504002628 | 11 | 294 | 0.0 | 0.0 | 0.00 | 0.00 | 0.00 | 46 | 984.3 |
| 20260504002132 | 11 | 294 | 0.0 | 0.0 | 0.00 | 0.00 | 0.00 | 45 | 984.3 |
| 20260504001631 | 12 | 294 | 0.0 | 0.0 | 0.00 | 0.00 | 0.00 | 45 | 984.3 |
| 20260504001133 | 12 | 294 | 0.0 | 0.0 | 0.00 | 0.00 | 0.00 | 45 | 984.3 |
| 20260504000630 | 12 | 294 | 0.0 | 0.0 | 0.00 | 0.00 | 0.00 | 45 | 984.3 |
| 20260504000131 | 12 | 294 | 0.0 | 0.0 | 0.00 | 0.00 | 0.00 | 44 | 984.3 |
| 20260503235130 | 13 | 294 | 0.0 | 0.0 | 0.00 | 0.00 | 0.00 | 42 | 984.2 |
| 20260503234629 | 13 | 294 | 0.0 | 0.0 | 0.00 | 0.00 | 0.00 | 41 | 984.2 |
| 20260503234131 | 13 | 294 | 0.0 | 0.0 | 0.00 | 0.00 | 0.00 | 41 | 984.1 |
| 20260503233632 | 13 | 294 | 0.0 | 0.0 | 0.00 | 0.00 | 0.00 | 40 | 984.1 |
| 20260503232629 | 13 | 294 | 0.0 | 4.8 | 0.00 | 0.00 | 0.00 | 40 | 984.1 |
| 20260503232129 | 13 | 298 | 1.6 | 3.2 | 0.00 | 0.00 | 0.00 | 40 | 984.0 |
| 20260503230619 | 14 | 347 | 1.6 | 11.3 | 0.00 | 0.00 | 0.00 | 39 | 983.8 |
| 20260503230116 | 14 | 330 | 3.2 | 11.3 | 0.00 | 0.00 | 0.00 | 39 | 983.9 |
| 20260503225611 | 14 | 339 | 3.2 | 8.0 | 0.00 | 0.00 | 0.00 | 38 | 983.8 |
| 20260503225103 | 14 | 307 | 1.6 | 8.0 | 0.00 | 0.00 | 0.00 | 39 | 983.9 |
| 20260503224602 | 14 | 269 | 1.6 | 4.8 | 0.00 | 0.00 | 0.00 | 39 | 983.9 |
| 20260503224103 | 14 | 315 | 1.6 | 6.4 | 0.00 | 0.00 | 0.00 | 39 | 984.0 |
| 20260503223558 | 15 | 321 | 1.6 | 6.4 | 0.00 | 0.00 | 0.00 | 38 | 984.0 |
| 20260503222548 | 15 | 328 | 3.2 | 9.7 | 0.00 | 0.00 | 0.00 | 37 | 984.0 |
| 20260503222041 | 15 | 340 | 1.6 | 9.7 | 0.00 | 0.00 | 0.00 | 39 | 984.0 |
| 20260503221541 | 15 | 344 | 3.2 | 14.5 | 0.00 | 0.00 | 0.00 | 36 | 984.0 |
| 20260503221037 | 15 | 336 | 1.6 | 14.5 | 0.00 | 0.00 | 0.00 | 36 | 984.1 |
| 20260503220539 | 15 | 313 | 3.2 | 8.0 | 0.00 | 0.00 | 0.00 | 36 | 984.0 |
| 20260503220040 | 15 | 275 | 1.6 | 6.4 | 0.00 | 0.00 | 0.00 | 36 | 984.1 |
| 20260503215534 | 15 | 113 | 3.2 | 6.4 | 0.00 | 0.00 | 0.00 | 36 | 984.0 |
| 20260503215032 | 15 | 69 | 1.6 | 4.8 | 0.00 | 0.00 | 0.00 | 36 | 984.1 |
| 20260503213029 | 15 | 46 | 3.2 | 8.0 | 0.00 | 0.00 | 0.00 | 37 | 984.1 |
| 20260503212531 | 15 | 304 | 1.6 | 6.4 | 0.00 | 0.00 | 0.00 | 36 | 984.0 |
| 20260503212031 | 15 | 338 | 0.0 | 6.4 | 0.00 | 0.00 | 0.00 | 37 | 984.0 |
| 20260503211530 | 15 | 338 | 1.6 | 8.0 | 0.00 | 0.00 | 0.00 | 35 | 984.1 |
| 20260503211028 | 16 | 322 | 1.6 | 9.7 | 0.00 | 0.00 | 0.00 | 34 | 983.9 |
| 20260503210527 | 16 | 297 | 3.2 | 9.7 | 0.00 | 0.00 | 0.00 | 35 | 984.0 |
| 20260503210028 | 16 | 300 | 1.6 | 4.8 | 0.00 | 0.00 | 0.00 | 35 | 984.0 |
| 20260503205523 | 16 | 333 | 1.6 | 8.0 | 0.00 | 0.00 | 0.00 | 35 | 983.9 |
| 20260503205026 | 16 | 321 | 3.2 | 16.1 | 0.00 | 0.00 | 0.00 | 35 | 984.0 |
| 20260503204518 | 16 | 302 | 3.2 | 16.1 | 0.00 | 0.00 | 0.00 | 34 | 984.0 |
| 20260503204024 | 16 | 342 | 1.6 | 4.8 | 0.00 | 0.00 | 0.00 | 36 | 983.9 |
| 20260503203521 | 16 | 5 | 1.6 | 4.8 | 0.00 | 0.00 | 0.00 | 35 | 983.9 |
| 20260503203019 | 16 | 294 | 3.2 | 16.1 | 0.00 | 0.00 | 0.00 | 35 | 983.9 |